Regional Weather Roundup
Issued by NWS State College, PA

Home | Current Version | Previous Version | Text Only | Print | Product List | Glossary On
Versions: 1 2 3 4 5 6 7 8 9 10 11 12 13 14 15 16 17 18 19 20 21 22 23 24 25 26 27 28 29 30 31 32 33 34 35 36 37 38 39 40 41 42 43 44 45 46 47 48 49 50
000
ASUS41 KCTP 222103
RWRCTP

REGIONAL WEATHER ROUNDUP
NATIONAL WEATHER SERVICE STATE COLLEGE PA
500 PM EDT TUE JUL 22 2014

Note: "fair" indicates few or no clouds below 12,000 feet with no
significant weather and/or obstructions to visibility.

* = STATION THAT DOES NOT REPORT PRECIPITATION /E.G. RAIN...SNOW...ETC/
    THUNDER OR FOG.

PAZ002>004-007>009-013>016-020>023-029>032-222200-
WESTERN PENNSYLVANIA

CITY           SKY/WX    TMP DP  RH WIND       PRES   REMARKS
ERIE           SUNNY     86  66  51 NW7       30.02F
MEADVILLE      NOT AVBL
FRANKLIN*      MOSUNNY   84  66  54 S12       30.09F
NEW CASTLE       N/A     89  70  53 SW5       30.06F
BEAVER COUNTY  MOSUNNY   88  66  48 S8        30.07F
BUTLER*        SUNNY     84  66  54 S3        30.09S
PITTSBURGH INT MOSUNNY   87  67  51 SW7       30.07F
PITTSBURGH     SUNNY     85  66  53 S8        30.07F
INDIANA*       MOSUNNY   86  68  54 SW7       30.12F
LATROBE        MOSUNNY   88  72  58 W12       30.09F
WASHINGTON CO* SUNNY     84  70  61 S6        30.09F
$$

PAZ004>006-010>012-017>019-024>028-033>037-041-042-045-046-049>053-222200-
CENTRAL PENNSYLVANIA

CITY           SKY/WX    TMP DP  RH WIND       PRES   REMARKS
BRADFORD       MOSUNNY   82  62  50 SW7       30.10F
DUBOIS         MOSUNNY   85  67  54 SW9       30.10S
CLEARFIELD     PTSUNNY   82  70  66 S8        30.09F
JOHNSTOWN      CLOUDY    76  68  76 S10       30.15F
ALTOONA        PTSUNNY   83  69  62 S8        30.11F
STATE COLLEGE  PTSUNNY   84  70  61 S8        30.09F
WILLIAMSPORT   PTSUNNY   86  69  56 S10       30.04F
SELINSGROVE    SUNNY     85  69  58 SW10      30.07F
FT INDIANTOWN  MOSUNNY   87  70  57 S9        30.08F
CAPITAL CITY   SUNNY     86  68  54 S12       30.07F
HARRISBURG     MOSUNNY   88  68  51 S8        30.06F
YORK           MOSUNNY   84  71  65 VRB5      30.09F
$$

PAZ038>040-043-044-047-048-054-055-060>062-067>071-222200-
EASTERN PENNSYLVANIA

CITY           SKY/WX    TMP DP  RH WIND       PRES   REMARKS
SCRANTON       PTSUNNY   87  66  49 SW8       30.08F
MOUNT POCONO   MOSUNNY   80  64  58 SW9       30.15F
ALLENTOWN      MOSUNNY   86  69  56 SW5       30.08F
QUAKERTOWN*    PTCLDY    86  68  54 S6        30.10F
READING        PTSUNNY   86  70  58 S9        30.07F
LANCASTER      PTSUNNY   84  69  60 SW13      30.08F
COATESVILLE    CLEAR     82  68  61 S5        30.12F
POTTSTOWN      MOSUNNY   86  67  52 SW9       30.10F
BLUE BELL      MOSUNNY   88  70  55 S7        30.08F
DOYLESTOWN     MOSUNNY   84  68  58 SW7       30.08F
WILLOW GROVE   NOT AVBL
NORTH PHILA    SUNNY     87  65  47 S8G17     30.09F
PHILADELPHIA   MOSUNNY   86  64  47 S15       30.09F
$$



USA.gov is the U.S. government's official web portal to all federal, state and local government web resources and services.